Weather History for Haleyville, AL

Change the Weather History Date:

Friday, January 18, 2013

  Actual Average (KJFX) Record (KJFX)
Temperature  
Mean Temperature 39 °F -  
Max Temperature 52 °F 49 °F 69 °F (1973)
Min Temperature 26 °F 26 °F -2 °F (1982)
Degree Days  
Heating Degree Days 26    
Moisture  
Dew Point 28 °F    
Average Humidity 78    
Maximum Humidity 100    
Minimum Humidity 34    
Precipitation  
Precipitation 0.00 in - - ()
Sea Level Pressure  
Sea Level Pressure 30.50 in    
Wind  
Wind Speed 3 mph (ESE)    
Max Wind Speed 7 mph    
Max Gust Speed -    
Visibility 9 miles    
Events      
Averages and records for this station are not official NWS values.
T = Trace of Precipitation, MM = Missing Value Source: NWS Daily Summary

Daily Weather History Graph

Daily Weather History Graph

Search for Another Location

Airport:

Trip Planner

Search our weather history database for the weather conditions in past years. The results will help you decide how hot, cold, wet, or windy it might be!

Date:

Astronomy

Jan. 18, 2013 Rise Set
Actual Time 6:55 AM CST 5:06 PM CST
Civil Twilight 6:28 AM CST 5:33 PM CST
Nautical Twilight 5:57 AM CST 6:04 PM CST
Astronomical Twilight 5:27 AM CST 6:34 PM CST
Moon 10:55 AM CST (1/18) No Moon Set
Length of Visible Light 11h 05m
Length of Day
10h 11m
Waxing Crescent, 47% of the Moon is Illuminated
Jan 18
Waxing Crescent
Jan 18
First Quarter
Jan 26
Full
Feb 3
Last Quarter
Feb 10
New

Hourly Weather History & Observations

Time (CST) Temp. Windchill Dew Point Humidity Pressure Visibility Wind Dir Wind Speed Gust Speed Precip Events Conditions
1:56 AM 30.0 °F 24.1 °F 29.1 °F 96% 30.47 in 8.0 mi North 5.8 mph - N/A   Clear
2:56 AM 29.1 °F 25.4 °F 28.0 °F 96% 30.48 in 7.0 mi NNW 3.5 mph - N/A   Clear
3:56 AM 28.0 °F - 27.1 °F 96% 30.49 in 8.0 mi Calm Calm - N/A   Clear
4:56 AM 27.1 °F - 26.1 °F 96% 30.51 in 6.0 mi Calm Calm - N/A   Clear
5:56 AM 27.1 °F - 26.1 °F 96% 30.53 in 7.0 mi Calm Calm - N/A   Clear
6:56 AM 26.1 °F - 25.2 °F 96% 30.53 in 6.0 mi Calm Calm - N/A   Clear
7:56 AM 29.1 °F - 27.1 °F 92% 30.56 in 7.0 mi Calm Calm - N/A   Clear
8:56 AM 34.0 °F 28.0 °F 29.1 °F 82% 30.59 in 9.0 mi NE 6.9 mph - N/A   Clear
9:56 AM 38.8 °F - 32.0 °F 76% 30.60 in 10.0 mi Calm Calm - N/A   Clear
10:56 AM 43.0 °F - 32.0 °F 65% 30.59 in 10.0 mi Calm Calm - N/A   Clear
11:56 AM 46.9 °F - 32.9 °F 58% 30.56 in 10.0 mi Variable 3.5 mph - N/A   Clear
12:56 PM 48.9 °F - 29.1 °F 46% 30.52 in 10.0 mi East 3.5 mph - N/A   Clear
1:56 PM 52.9 °F - 27.1 °F 37% 30.50 in 10.0 mi Calm Calm - N/A   Clear
2:56 PM 52.9 °F - 25.2 °F 34% 30.48 in 10.0 mi East 6.9 mph - N/A   Clear
3:56 PM 52.0 °F - 26.1 °F 37% 30.48 in 10.0 mi SE 5.8 mph - N/A   Clear
4:56 PM 47.8 °F - 28.0 °F 46% 30.48 in 10.0 mi SE 4.6 mph - N/A   Clear
5:56 PM 39.9 °F 36.7 °F 31.1 °F 71% 30.47 in 10.0 mi SE 4.6 mph - N/A   Clear
6:56 PM 32.9 °F - 32.0 °F 96% 30.47 in 10.0 mi Calm Calm - N/A   Clear
7:56 PM 31.1 °F 27.7 °F 30.0 °F 96% 30.48 in 10.0 mi ESE 3.5 mph - N/A   Clear
8:56 PM 29.1 °F 25.4 °F 29.1 °F 100% 30.46 in 10.0 mi ESE 3.5 mph - N/A   Clear
9:56 PM 29.1 °F - 28.0 °F 96% 30.46 in 10.0 mi Calm Calm - N/A   Clear
10:56 PM 28.0 °F - 27.1 °F 96% 30.45 in 10.0 mi Calm Calm - N/A   Clear
11:56 PM 28.0 °F 24.2 °F 27.1 °F 96% 30.44 in 10.0 mi SSW 3.5 mph - N/A   Clear